Time,TemperatureF,DewpointF,PressureIn,WindDirection,WindDirectionDegrees,WindSpeedMPH,WindSpeedGustMPH,Humidity,HourlyPrecipIn,Conditions,Clouds,dailyrainin,SoftwareType,DateUTC
2013-02-17 00:33:00,31.0,19.0,-100.00,North,5,5.0,12.0,60,-99.99,,,-99.99,,2013-02-17 05:33:00,
2013-02-17 00:42:00,31.0,19.0,-100.00,North,5,6.0,16.0,60,-99.99,,,-99.99,,2013-02-17 05:42:00,
2013-02-17 00:52:00,31.0,19.0,-100.00,North,5,6.0,13.0,60,-99.99,,,-99.99,,2013-02-17 05:52:00,
2013-02-17 01:02:00,31.0,18.0,-100.00,North,0,6.0,13.0,58,-99.99,,,-99.99,,2013-02-17 06:02:00,
2013-02-17 01:11:00,30.0,16.0,-100.00,North,355,5.0,15.0,55,-99.99,,,-99.99,,2013-02-17 06:11:00,
2013-02-17 01:21:00,30.0,16.0,-100.00,North,350,5.0,15.0,54,-99.99,,,-99.99,,2013-02-17 06:21:00,
2013-02-17 01:32:00,30.0,14.0,-100.00,North,5,5.0,10.0,51,-99.99,,,-99.99,,2013-02-17 06:32:00,
2013-02-17 01:42:00,30.0,14.0,-100.00,NNW,345,3.0,13.0,50,-99.99,,,-99.99,,2013-02-17 06:42:00,
2013-02-17 01:51:00,30.0,13.0,-100.00,NNE,15,5.0,13.0,49,-99.99,,,-99.99,,2013-02-17 06:51:00,
2013-02-17 02:01:00,30.0,12.0,-100.00,NNE,25,2.0,17.0,46,-99.99,,,-99.99,,2013-02-17 07:01:00,
2013-02-17 02:11:00,30.0,10.0,-100.00,North,5,7.0,14.0,43,-99.99,,,-99.99,,2013-02-17 07:11:00,
2013-02-17 02:21:00,29.0,9.0,-100.00,NE,35,7.0,16.0,42,-99.99,,,-99.99,,2013-02-17 07:21:00,
2013-02-17 02:32:00,29.0,9.0,-100.00,North,355,5.0,16.0,42,-99.99,,,-99.99,,2013-02-17 07:32:00,
2013-02-17 02:42:00,29.0,8.0,-100.00,NNE,20,5.0,13.0,41,-99.99,,,-99.99,,2013-02-17 07:42:00,
2013-02-17 02:51:00,29.0,8.0,-100.00,NE,55,7.0,16.0,41,-99.99,,,-99.99,,2013-02-17 07:51:00,
2013-02-17 03:01:00,29.0,8.0,-100.00,North,350,7.0,15.0,40,-99.99,,,-99.99,,2013-02-17 08:01:00,
2013-02-17 03:11:00,29.0,6.0,-100.00,North,10,6.0,13.0,38,-99.99,,,-99.99,,2013-02-17 08:11:00,
2013-02-17 03:22:00,29.0,7.0,-100.00,North,5,6.0,13.0,39,-99.99,,,-99.99,,2013-02-17 08:22:00,
2013-02-17 03:32:00,29.0,7.0,-100.00,NW,320,3.0,12.0,39,-99.99,,,-99.99,,2013-02-17 08:32:00,
2013-02-17 03:42:00,28.0,8.0,-100.00,North,0,5.0,14.0,41,-99.99,,,-99.99,,2013-02-17 08:42:00,
2013-02-17 03:52:00,28.0,7.0,-100.00,NNW,340,5.0,14.0,40,-99.99,,,-99.99,,2013-02-17 08:52:00,
2013-02-17 04:02:00,28.0,7.0,-100.00,West,280,3.0,12.0,40,-99.99,,,-99.99,,2013-02-17 09:02:00,
2013-02-17 04:11:00,28.0,7.0,-100.00,North,355,3.0,13.0,40,-99.99,,,-99.99,,2013-02-17 09:11:00,
2013-02-17 04:21:00,28.0,7.0,-100.00,North,5,5.0,14.0,40,-99.99,,,-99.99,,2013-02-17 09:21:00,
2013-02-17 04:32:00,27.0,7.0,-100.00,North,10,6.0,20.0,42,-99.99,,,-99.99,,2013-02-17 09:32:00,
2013-02-17 04:42:00,27.0,9.0,-100.00,NW,325,3.0,15.0,47,-99.99,,,-99.99,,2013-02-17 09:42:00,
2013-02-17 04:51:00,27.0,10.0,-100.00,North,355,7.0,17.0,49,-99.99,,,-99.99,,2013-02-17 09:51:00,
2013-02-17 05:01:00,26.0,11.0,-100.00,North,10,8.0,18.0,52,-99.99,,,-99.99,,2013-02-17 10:01:00,
2013-02-17 05:11:00,26.0,12.0,-100.00,North,10,10.0,20.0,55,-99.99,,,-99.99,,2013-02-17 10:11:00,
2013-02-17 05:22:00,26.0,12.0,-100.00,North,10,10.0,20.0,55,-99.99,,,-99.99,,2013-02-17 10:22:00,
2013-02-17 05:32:00,26.0,12.0,-100.00,North,10,5.0,16.0,56,-99.99,,,-99.99,,2013-02-17 10:32:00,
2013-02-17 05:42:00,26.0,12.0,-100.00,NNW,345,9.0,17.0,56,-99.99,,,-99.99,,2013-02-17 10:42:00,
2013-02-17 05:52:00,25.0,13.0,-100.00,North,0,9.0,18.0,60,-99.99,,,-99.99,,2013-02-17 10:52:00,
2013-02-17 06:01:00,25.0,14.0,-100.00,North,10,6.0,15.0,62,-99.99,,,-99.99,,2013-02-17 11:01:00,
2013-02-17 06:11:00,25.0,16.0,-100.00,NNE,15,5.0,12.0,69,-99.99,,,-99.99,,2013-02-17 11:11:00,
2013-02-17 06:22:00,24.0,18.0,-100.00,NW,305,5.0,16.0,76,-99.99,,,-99.99,,2013-02-17 11:22:00,
2013-02-17 06:32:00,24.0,17.0,-100.00,NNE,30,2.0,12.0,76,-99.99,,,-99.99,,2013-02-17 11:32:00,
2013-02-17 06:42:00,24.0,18.0,-100.00,WNW,300,7.0,15.0,77,-99.99,,,-99.99,,2013-02-17 11:42:00,
2013-02-17 06:52:00,23.0,18.0,-100.00,WNW,295,7.0,17.0,79,-99.99,,,-99.99,,2013-02-17 11:52:00,
2013-02-17 07:03:00,22.0,18.0,-100.00,WSW,240,6.0,16.0,81,-99.99,,,-99.99,,2013-02-17 12:03:00,
2013-02-17 07:11:00,22.0,18.0,-100.00,WNW,295,5.0,15.0,85,-99.99,,,-99.99,,2013-02-17 12:11:00,
2013-02-17 07:22:00,22.0,18.0,-100.00,North,350,5.0,15.0,86,-99.99,,,-99.99,,2013-02-17 12:22:00,
2013-02-17 07:32:00,21.0,18.0,-100.00,NW,305,3.0,13.0,88,-99.99,,,-99.99,,2013-02-17 12:32:00,
2013-02-17 07:42:00,21.0,18.0,-100.00,West,265,3.0,12.0,89,-99.99,,,-99.99,,2013-02-17 12:42:00,
2013-02-17 07:52:00,21.0,18.0,-100.00,NW,310,7.0,17.0,89,-99.99,,,-99.99,,2013-02-17 12:52:00,
2013-02-17 08:02:00,20.0,18.0,-100.00,WNW,290,6.0,17.0,91,-99.99,,,-99.99,,2013-02-17 13:02:00,
2013-02-17 08:12:00,20.0,17.0,-100.00,West,270,7.0,15.0,90,-99.99,,,-99.99,,2013-02-17 13:12:00,
2013-02-17 08:22:00,19.0,17.0,-100.00,WNW,295,7.0,17.0,91,-99.99,,,-99.99,,2013-02-17 13:22:00,
2013-02-17 08:32:00,19.0,17.0,-100.00,WNW,295,7.0,17.0,91,-99.99,,,-99.99,,2013-02-17 13:32:00,
2013-02-17 08:42:00,19.0,17.0,-100.00,NW,305,6.0,17.0,89,-99.99,,,-99.99,,2013-02-17 13:42:00,
2013-02-17 08:52:00,19.0,17.0,-100.00,West,280,9.0,17.0,89,-99.99,,,-99.99,,2013-02-17 13:52:00,
2013-02-17 09:01:00,19.0,16.0,-100.00,WSW,245,8.0,16.0,89,-99.99,,,-99.99,,2013-02-17 14:01:00,
2013-02-17 09:11:00,19.0,16.0,-100.00,NW,305,7.0,15.0,89,-99.99,,,-99.99,,2013-02-17 14:11:00,
2013-02-17 09:22:00,19.0,16.0,-100.00,WNW,285,8.0,16.0,89,-99.99,,,-99.99,,2013-02-17 14:22:00,
2013-02-17 09:32:00,19.0,16.0,-100.00,West,275,10.0,16.0,90,-99.99,,,-99.99,,2013-02-17 14:32:00,
2013-02-17 09:42:00,19.0,16.0,-100.00,NW,305,9.0,16.0,90,-99.99,,,-99.99,,2013-02-17 14:42:00,
2013-02-17 09:52:00,18.0,16.0,-100.00,West,270,8.0,20.0,91,-99.99,,,-99.99,,2013-02-17 14:52:00,
2013-02-17 10:02:00,18.0,16.0,-100.00,West,270,9.0,20.0,91,-99.99,,,-99.99,,2013-02-17 15:02:00,
2013-02-17 10:11:00,18.0,16.0,-100.00,West,265,6.0,16.0,91,-99.99,,,-99.99,,2013-02-17 15:11:00,
2013-02-17 10:22:00,18.0,16.0,-100.00,NW,315,7.0,18.0,91,-99.99,,,-99.99,,2013-02-17 15:22:00,
2013-02-17 10:30:00,19.0,16.0,-100.00,NW,310,5.0,24.0,88,-99.99,,,-99.99,,2013-02-17 15:30:00,
2013-02-17 10:32:00,18.0,16.0,-100.00,NW,310,6.0,21.0,91,-99.99,,,-99.99,,2013-02-17 15:32:00,
2013-02-17 10:42:00,18.0,16.0,-100.00,NNW,330,9.0,21.0,91,-99.99,,,-99.99,,2013-02-17 15:42:00,
2013-02-17 10:52:00,18.0,16.0,-100.00,NW,305,9.0,17.0,91,-99.99,,,-99.99,,2013-02-17 15:52:00,
2013-02-17 11:01:00,18.0,16.0,-100.00,NW,305,9.0,17.0,91,-99.99,,,-99.99,,2013-02-17 16:01:00,
2013-02-17 11:12:00,19.0,16.0,-100.00,NW,310,5.0,24.0,88,-99.99,,,-99.99,,2013-02-17 16:12:00,
2013-02-17 11:22:00,19.0,16.0,-100.00,NW,310,5.0,24.0,88,-99.99,,,-99.99,,2013-02-17 16:22:00,
2013-02-17 11:42:00,19.0,16.0,-100.00,WNW,285,5.0,18.0,88,-99.99,,,-99.99,,2013-02-17 16:42:00,
2013-02-17 11:52:00,19.0,16.0,-100.00,West,270,5.0,21.0,88,-99.99,,,-99.99,,2013-02-17 16:52:00,
2013-02-17 12:02:00,19.0,16.0,-100.00,West,275,7.0,22.0,88,-99.99,,,-99.99,,2013-02-17 17:02:00,
2013-02-17 12:11:00,19.0,16.0,-100.00,West,275,8.0,20.0,88,-99.99,,,-99.99,,2013-02-17 17:11:00,
2013-02-17 12:21:00,19.0,16.0,-100.00,NW,310,10.0,25.0,88,-99.99,,,-99.99,,2013-02-17 17:21:00,
2013-02-17 12:52:00,18.0,15.0,-100.00,WNW,285,7.0,27.0,88,-99.99,,,-99.99,,2013-02-17 17:52:00,
2013-02-17 13:02:00,18.0,15.0,-100.00,NW,305,9.0,27.0,88,-99.99,,,-99.99,,2013-02-17 18:02:00,
2013-02-17 13:11:00,18.0,15.0,-100.00,WSW,250,8.0,22.0,88,-99.99,,,-99.99,,2013-02-17 18:11:00,
2013-02-17 13:22:00,18.0,15.0,-100.00,WNW,290,8.0,22.0,87,-99.99,,,-99.99,,2013-02-17 18:22:00,
2013-02-17 13:33:00,19.0,15.0,-100.00,WNW,285,8.0,20.0,85,-99.99,,,-99.99,,2013-02-17 18:33:00,
2013-02-17 13:42:00,19.0,14.0,-100.00,West,270,5.0,18.0,81,-99.99,,,-99.99,,2013-02-17 18:42:00,
2013-02-17 13:52:00,19.0,14.0,-100.00,West,270,5.0,18.0,81,-99.99,,,-99.99,,2013-02-17 18:52:00,
2013-02-17 14:02:00,20.0,14.0,-100.00,West,270,8.0,22.0,76,-99.99,,,-99.99,,2013-02-17 19:02:00,
2013-02-17 14:11:00,20.0,13.0,-100.00,West,280,13.0,25.0,72,-99.99,,,-99.99,,2013-02-17 19:11:00,
2013-02-17 14:22:00,21.0,12.0,-100.00,West,280,10.0,24.0,67,-99.99,,,-99.99,,2013-02-17 19:22:00,
2013-02-17 14:32:00,21.0,10.0,-100.00,WNW,285,14.0,32.0,62,-99.99,,,-99.99,,2013-02-17 19:32:00,
2013-02-17 17:32:00,21.0,2.0,-100.00,West,275,9.0,27.0,44,-99.99,,,-99.99,,2013-02-17 22:32:00,
2013-02-17 18:32:00,20.0,2.0,-100.00,West,260,14.0,27.0,45,-99.99,,,-99.99,,2013-02-17 23:32:00,
2013-02-17 23:32:00,16.0,1.0,-100.00,WSW,250,14.0,25.0,51,-99.99,,,-99.99,,2013-02-18 04:32:00,